[[{"header":{"parameterUnit":"m.s-1","parameterCategory":1,"la1":30.2991,"la2":30.254,"lo1":-89.0895,"lo2":-89.0444,"dy":0.0017,"dx":0.0017,"nx":28,"ny":28,"refTime":"2025-11-26T09:00:00:Z","depth":0,"parameterNumber":2,"parameterNumberName":"U-component_of_WINDS"},"data":[0,0,0,0,0,0,0,0,0,0,0,0,0,0,0,0,0,0,0,0,0,0,0,0,0,0,0,0,0,0,0,0,0,0,0,0,0,0,0,0,0,0,0,0,0,0,0,0,0,0,0,0,0,0,0,0,0,0,-0.7008,-0.7008,0,-0.7027,-0.7027,-0.7027,-0.701,-0.701,-0.7009,-0.7008,-0.7027,-0.7029,-0.703,0,0,0,0,0,0,0,0,0,0,0,0,0,-0.6957,-0.6958,-0.7008,-0.7008,-0.7009,-0.7027,-0.7027,-0.7028,-0.701,-0.701,-0.7009,-0.7008,-0.7027,-0.7028,-0.703,0,0,0,0,0,0,0,0,0,0,0,0,0,-0.6978,-0.6958,-0.7008,-0.7002,-0.7002,-0.7027,-0.7027,-0.7028,-0.7011,-0.701,-0.7009,-0.7008,-0.7027,-0.7028,-0.703,-0.7062,0,0,-0.7035,-0.7036,0,0,0,0,0,0,0,0,-0.6977,-0.698,-0.7003,-0.7003,-0.7003,-0.7015,-0.7016,-0.7039,-0.7011,-0.7007,-0.7008,-0.7007,-0.7024,-0.7026,-0.7032,-0.7063,-0.7063,-0.7036,-0.7037,-0.7037,-0.7038,0,0,0,0,0,0,0,-0.6975,-0.6979,-0.7016,-0.7003,-0.7003,-0.6999,-0.7,-0.702,-0.7021,-0.7008,-0.7006,-0.7009,-0.7024,-0.703,-0.7032,-0.7064,-0.7035,-0.7037,-0.7038,-0.7039,-0.7121,-0.7122,0,0,0,0,0,0,-0.6974,-0.6978,-0.7015,-0.7016,-0.6987,-0.7,-0.7002,-0.7012,-0.7021,-0.7022,-0.701,-0.7008,-0.7028,-0.703,-0.7033,-0.7071,-0.7037,-0.7039,-0.704,-0.712,-0.7121,-0.7122,0,0,0,0,0,0,-0.6973,-0.6978,-0.7014,-0.6997,-0.7001,-0.7002,-0.7014,-0.7013,-0.702,-0.7023,-0.7023,-0.7016,-0.7027,-0.703,-0.7055,-0.7071,-0.704,-0.7041,-0.7118,-0.712,-0.7122,-0.7146,0,0,0,0,0,0,-0.6972,-0.6978,-0.699,-0.6997,-0.7002,-0.7036,-0.7015,-0.7014,-0.7023,-0.7021,-0.7029,-0.7029,-0.7027,-0.7052,-0.7056,-0.7073,-0.7043,-0.7117,-0.7119,-0.7121,-0.7144,-0.7148,-0.7152,0,0,0,0,0,-0.697,-0.6996,-0.6991,-0.6995,-0.7017,-0.7037,-0.704,-0.7036,-0.7024,-0.7036,-0.7038,-0.7029,-0.7068,-0.7055,-0.7059,-0.7077,-0.7116,-0.7118,-0.7121,-0.7142,-0.7148,-0.7152,0,0,0,0,0,0,-0.6991,-0.6997,-0.6991,-0.702,-0.7028,-0.7034,-0.705,-0.7042,-0.7054,-0.7052,-0.7047,-0.7049,-0.7074,-0.7078,-0.7062,-0.7107,-0.709,-0.7094,-0.7104,-0.711,-0.7114,-0.7113,-0.7044,0,0,0,0,0,-0.6999,-0.7015,-0.7019,-0.7044,-0.7048,-0.7048,-0.7057,-0.7053,-0.7061,-0.7065,-0.7068,-0.7077,-0.7091,-0.71,-0.7113,-0.7144,-0.7145,-0.7158,-0.7162,-0.7166,-0.7169,-0.7185,-0.7191,-0.713,-0.713,-0.713,0,0,-0.7016,-0.7021,-0.7031,-0.7048,-0.7054,-0.707,-0.7051,-0.7069,-0.7081,-0.7067,-0.7091,-0.7093,-0.7102,-0.713,-0.7142,-0.7133,-0.7186,-0.7169,-0.7172,-0.7173,-0.7188,-0.7194,-0.7199,-0.7132,-0.7132,-0.7132,0,0,-0.7055,-0.706,-0.7082,-0.7088,-0.7097,-0.7096,-0.7101,-0.7108,-0.711,-0.7133,-0.7123,-0.7136,-0.7161,-0.7168,-0.7174,-0.7214,-0.7206,-0.7219,-0.7241,-0.7257,-0.7262,-0.7266,-0.7281,-0.7286,-0.7222,-0.7222,-0.7222,0,-0.7074,-0.7098,-0.7094,-0.7112,-0.712,-0.7108,-0.713,-0.7136,-0.7149,-0.7154,-0.7144,-0.7174,-0.7179,-0.7208,-0.7218,-0.7224,-0.7229,-0.7218,-0.7262,-0.7266,-0.727,-0.7284,-0.7289,-0.7223,-0.7223,-0.7223,-0.7223,0,-0.7122,-0.7139,-0.7155,-0.7168,-0.7178,-0.7198,-0.7196,-0.7206,-0.7201,-0.7202,-0.7225,-0.723,-0.7244,-0.7251,-0.7246,-0.7279,-0.7273,-0.7262,-0.7245,-0.7277,-0.729,-0.7295,-0.7226,-0.7225,-0.7225,-0.7224,0,0,-0.7176,-0.7185,-0.7191,-0.7197,-0.7205,-0.7218,-0.7237,-0.7251,-0.726,-0.7269,-0.7285,-0.7305,-0.7295,-0.7303,-0.7299,-0.7313,-0.7345,-0.73,-0.73,-0.7309,-0.7381,-0.7389,-0.7395,-0.7339,-0.734,-0.734,-0.738,0,-0.7216,-0.725,-0.7245,-0.7278,-0.7293,-0.7281,-0.7298,-0.7305,-0.7305,-0.7318,-0.7319,-0.7334,-0.7319,-0.7324,-0.7337,-0.7338,-0.7359,-0.7335,-0.7354,-0.7355,-0.7353,-0.7402,-0.7411,-0.7449,-0.7385,-0.7386,-0.7387,0,-0.7267,-0.7278,-0.7311,-0.7317,-0.7323,-0.7339,-0.7351,-0.7363,-0.737,-0.737,-0.7378,-0.7371,-0.739,-0.7371,-0.7397,-0.7381,-0.7388,-0.739,-0.7391,-0.7394,-0.7373,-0.7407,-0.746,-0.7466,-0.7394,-0.7394,-0.7393,0,-0.7303,-0.7326,-0.7349,-0.7354,-0.7361,-0.7372,-0.7376,-0.7382,-0.739,-0.74,-0.7406,-0.7418,-0.7425,-0.7434,-0.7431,-0.7418,-0.7458,-0.7439,-0.7458,-0.7458,-0.7468,-0.7467,-0.7524,-0.7471,-0.7471,-0.7471,-0.7471,0,-0.7349,-0.737,-0.7366,-0.738,-0.7403,-0.7398,-0.7421,-0.7423,-0.7428,-0.7443,-0.7433,-0.7446,-0.7441,-0.7454,-0.7451,-0.7473,-0.7476,-0.7476,-0.7475,-0.7478,-0.7478,-0.7483,-0.7481,-0.7472,-0.7472,-0.7472,-0.7471,0,-0.7394,-0.7392,-0.7416,-0.7421,-0.7423,-0.744,-0.7443,-0.7457,-0.7456,-0.7474,-0.7478,-0.7477,-0.7492,-0.7489,-0.7506,-0.7504,-0.7532,-0.7527,-0.753,-0.7529,-0.7548,-0.7547,-0.7611,-0.762,-0.756,-0.7561,-0.7561,0,-0.7423,-0.7439,-0.7446,-0.7454,-0.7459,-0.7473,-0.7481,-0.7476,-0.7485,-0.7494,-0.7506,-0.752,-0.7531,-0.7555,-0.7556,-0.7568,-0.7565,-0.7586,-0.7567,-0.7568,-0.7566,-0.7565,-0.7567,-0.7591,-0.7591,-0.7592,-0.7592,0,-0.7476,-0.7474,-0.7487,-0.7499,-0.7509,-0.7518,-0.7526,-0.7534,-0.7529,-0.754,-0.7555,-0.7563,-0.7579,-0.7593,-0.7605,-0.7608,-0.76,-0.7598,-0.7604,-0.7607,-0.7607,-0.7608,-0.7541,-0.7597,-0.7597,-0.7596,-0.7596,-0.7596,-0.7515,-0.7529,-0.7535,-0.7549,-0.7554,-0.7562,-0.7575,-0.7576,-0.7588,-0.7601,-0.7597,-0.7614,-0.762,-0.7634,-0.7639,-0.7652,-0.7644,-0.7651,-0.7653,-0.7656,-0.7658,-0.7604,-0.7654,-0.7654,-0.7654,-0.7654,-0.7653,0,-0.7568,-0.7571,-0.7584,-0.7595,-0.7606,-0.7597,-0.7605,-0.7615,-0.763,-0.7637,-0.7647,-0.7664,-0.7678,-0.7679,-0.7691,-0.7702,-0.7698,-0.7705,-0.7705,-0.7706,-0.7664,-0.7659,-0.7708,-0.7708,-0.7708,-0.7708,-0.7708,-0.7708,-0.7596,-0.7619,-0.7618,-0.7643,-0.7646,-0.7663,-0.7668,-0.7675,-0.768,-0.77,-0.7711,-0.7711,-0.7716,-0.7728,-0.774,-0.774,-0.7745,-0.7754,-0.7752,-0.7714,-0.7709,-0.7703,-0.7698,-0.7755,-0.7755,-0.7793,-0.7793,-0.7793]},{"header":{"parameterUnit":"m.s-1","parameterCategory":1,"la1":30.2991,"la2":30.254,"lo1":-89.0895,"lo2":-89.0444,"dy":0.0017,"dx":0.0017,"nx":28,"ny":28,"refTime":"2025-11-26T09:00:00:Z","depth":0,"parameterNumber":3,"parameterNumberName":"V-component_of_WINDS"},"data":[0,0,0,0,0,0,0,0,0,0,0,0,0,0,0,0,0,0,0,0,0,0,0,0,0,0,0,0,0,0,0,0,0,0,0,0,0,0,0,0,0,0,0,0,0,0,0,0,0,0,0,0,0,0,0,0,0,0,-5.4673,-5.4673,0,-5.4737,-5.4738,-5.4739,-5.4711,-5.4709,-5.4708,-5.4706,-5.4767,-5.477,-5.4774,0,0,0,0,0,0,0,0,0,0,0,0,0,-5.4521,-5.4524,-5.4673,-5.4673,-5.4674,-5.4737,-5.4738,-5.4739,-5.4711,-5.4709,-5.4707,-5.4706,-5.4766,-5.477,-5.4774,0,0,0,0,0,0,0,0,0,0,0,0,0,-5.4586,-5.4525,-5.4673,-5.4668,-5.4668,-5.4737,-5.4738,-5.4739,-5.4712,-5.4709,-5.4707,-5.4705,-5.4765,-5.477,-5.4774,-5.485,0,0,-5.4788,-5.479,0,0,0,0,0,0,0,0,-5.4583,-5.4592,-5.4668,-5.4669,-5.4669,-5.4714,-5.4707,-5.4776,-5.4712,-5.4695,-5.4706,-5.4703,-5.4751,-5.4757,-5.4774,-5.4853,-5.4855,-5.4789,-5.4792,-5.4794,-5.4795,0,0,0,0,0,0,0,-5.4578,-5.4589,-5.4698,-5.4669,-5.467,-5.4662,-5.4668,-5.472,-5.4735,-5.4696,-5.4694,-5.4703,-5.4751,-5.477,-5.4775,-5.4856,-5.4789,-5.4793,-5.4796,-5.4798,-5.5001,-5.5004,0,0,0,0,0,0,-5.4574,-5.4585,-5.4696,-5.47,-5.4619,-5.4666,-5.4674,-5.4702,-5.4735,-5.4738,-5.4705,-5.4701,-5.4763,-5.477,-5.4777,-5.4869,-5.4794,-5.4798,-5.4801,-5.4999,-5.5002,-5.5005,0,0,0,0,0,0,-5.4571,-5.4584,-5.4693,-5.4642,-5.4656,-5.4671,-5.4703,-5.4704,-5.4723,-5.4741,-5.4743,-5.4721,-5.4761,-5.4771,-5.4833,-5.4871,-5.48,-5.4804,-5.4996,-5.5,-5.5003,-5.5052,0,0,0,0,0,0,-5.4567,-5.4584,-5.4613,-5.4643,-5.4659,-5.4749,-5.4705,-5.4707,-5.4731,-5.4727,-5.4757,-5.476,-5.476,-5.4826,-5.4837,-5.4876,-5.4808,-5.4992,-5.4997,-5.5002,-5.5047,-5.5057,-5.5066,0,0,0,0,0,-5.4562,-5.4623,-5.4615,-5.4628,-5.4696,-5.4751,-5.476,-5.4761,-5.4735,-5.4764,-5.4776,-5.4759,-5.4865,-5.4832,-5.4845,-5.4885,-5.499,-5.4996,-5.5002,-5.5043,-5.5055,-5.5066,0,0,0,0,0,0,-5.4594,-5.4627,-5.4618,-5.4691,-5.4719,-5.4747,-5.4784,-5.4773,-5.4808,-5.4802,-5.48,-5.4807,-5.4872,-5.4884,-5.4848,-5.4961,-5.4923,-5.4932,-5.495,-5.4962,-5.4971,-5.4967,-5.4812,0,0,0,0,0,-5.4611,-5.4654,-5.4679,-5.4741,-5.4756,-5.4768,-5.4792,-5.479,-5.4818,-5.4829,-5.4845,-5.4872,-5.4911,-5.4937,-5.4974,-5.5049,-5.5055,-5.5083,-5.5092,-5.51,-5.5108,-5.5149,-5.5162,-5.5024,-5.5024,-5.5024,0,0,-5.4643,-5.4666,-5.4694,-5.4749,-5.477,-5.4814,-5.4778,-5.4825,-5.4858,-5.4836,-5.4896,-5.4909,-5.4939,-5.5008,-5.5039,-5.5021,-5.5147,-5.5107,-5.5113,-5.5117,-5.5157,-5.517,-5.5181,-5.5028,-5.5027,-5.5027,0,0,-5.4727,-5.4748,-5.4803,-5.4826,-5.486,-5.4868,-5.4881,-5.4911,-5.4919,-5.498,-5.4965,-5.5003,-5.507,-5.5093,-5.5113,-5.5206,-5.5192,-5.5218,-5.5267,-5.5308,-5.5319,-5.5328,-5.5363,-5.5375,-5.5226,-5.5226,-5.5226,0,-5.4763,-5.4831,-5.4832,-5.4883,-5.4908,-5.4891,-5.4947,-5.4968,-5.5012,-5.5029,-5.5008,-5.5094,-5.5112,-5.5187,-5.521,-5.5226,-5.5241,-5.5215,-5.5317,-5.5327,-5.5336,-5.5369,-5.5382,-5.5229,-5.5229,-5.5228,-5.5228,0,-5.4875,-5.4922,-5.4962,-5.5007,-5.5036,-5.5089,-5.5097,-5.5126,-5.5122,-5.5132,-5.5195,-5.5217,-5.5259,-5.5276,-5.5271,-5.5351,-5.5338,-5.5318,-5.528,-5.5352,-5.5383,-5.5396,-5.5233,-5.5232,-5.5231,-5.5231,0,0,-5.4979,-5.5027,-5.5041,-5.5063,-5.5099,-5.5135,-5.5187,-5.523,-5.5256,-5.5286,-5.5329,-5.5388,-5.537,-5.5392,-5.539,-5.5426,-5.55,-5.5401,-5.5401,-5.5419,-5.559,-5.5606,-5.5621,-5.5491,-5.5493,-5.5495,-5.5588,0,-5.5066,-5.516,-5.5163,-5.5248,-5.5292,-5.5278,-5.5323,-5.535,-5.536,-5.5398,-5.5409,-5.5451,-5.5423,-5.5437,-5.5472,-5.5484,-5.5535,-5.5477,-5.5531,-5.5533,-5.5525,-5.5637,-5.5654,-5.574,-5.56,-5.5602,-5.5603,0,-5.518,-5.5218,-5.5307,-5.534,-5.5358,-5.5399,-5.544,-5.5476,-5.5507,-5.5512,-5.5539,-5.5532,-5.5584,-5.5544,-5.5616,-5.5577,-5.5599,-5.5608,-5.5612,-5.5617,-5.5573,-5.5646,-5.5768,-5.5781,-5.5622,-5.5621,-5.5619,0,-5.525,-5.5322,-5.5386,-5.5404,-5.5443,-5.5472,-5.5489,-5.5517,-5.5544,-5.5578,-5.5595,-5.5635,-5.5657,-5.5687,-5.5691,-5.5662,-5.5764,-5.5724,-5.577,-5.577,-5.5792,-5.5791,-5.592,-5.5805,-5.5805,-5.5804,-5.5804,0,-5.5347,-5.5403,-5.5418,-5.5457,-5.5519,-5.5522,-5.5582,-5.5597,-5.5623,-5.5664,-5.5653,-5.5691,-5.5694,-5.5733,-5.5736,-5.5795,-5.5805,-5.581,-5.5811,-5.5812,-5.5812,-5.5827,-5.5821,-5.5808,-5.5807,-5.5806,-5.5806,0,-5.5435,-5.5447,-5.5516,-5.5548,-5.5558,-5.5602,-5.5629,-5.5666,-5.5676,-5.5728,-5.574,-5.5755,-5.5801,-5.5808,-5.5861,-5.5863,-5.5935,-5.5928,-5.5926,-5.5925,-5.5971,-5.5967,-5.6115,-5.6135,-5.6006,-5.6007,-5.6008,0,-5.5497,-5.554,-5.5578,-5.5606,-5.5626,-5.567,-5.5698,-5.5702,-5.5731,-5.577,-5.5802,-5.5848,-5.5884,-5.5958,-5.5972,-5.6013,-5.6008,-5.6057,-5.6014,-5.6014,-5.601,-5.6008,-5.6013,-5.6066,-5.6067,-5.6068,-5.6069,0,-5.5606,-5.5611,-5.5652,-5.5696,-5.573,-5.5765,-5.5797,-5.582,-5.5828,-5.5861,-5.5909,-5.5938,-5.5993,-5.6038,-5.6079,-5.6095,-5.6084,-5.6083,-5.6095,-5.6098,-5.6095,-5.6099,-5.595,-5.6079,-5.6078,-5.6077,-5.6077,-5.6076,-5.5684,-5.5722,-5.5756,-5.5803,-5.5828,-5.5859,-5.5896,-5.5912,-5.5953,-5.6,-5.5999,-5.6052,-5.6082,-5.6136,-5.6155,-5.6195,-5.6179,-5.6197,-5.6202,-5.6207,-5.6212,-5.6088,-5.6202,-5.6202,-5.6202,-5.6202,-5.6201,0,-5.5794,-5.5815,-5.5858,-5.5905,-5.5942,-5.593,-5.5966,-5.5997,-5.6045,-5.6074,-5.6111,-5.6167,-5.6211,-5.623,-5.6273,-5.6302,-5.6298,-5.6313,-5.6311,-5.6315,-5.6224,-5.6209,-5.6316,-5.6316,-5.6316,-5.6316,-5.6315,-5.6315,-5.5855,-5.592,-5.5929,-5.6006,-5.6026,-5.608,-5.6102,-5.613,-5.6154,-5.6217,-5.6255,-5.6268,-5.6293,-5.6338,-5.6378,-5.6382,-5.6399,-5.6417,-5.6419,-5.6333,-5.6321,-5.6311,-5.6297,-5.642,-5.642,-5.6507,-5.6508,-5.6509]}]]